Simultaneous Nadir Overpasses (SNOs) Predictions

Prediction of SNOs between AQUA and METOP-B Satellite Orbit:

Table of predicted SNOs for the next 14.0 days since TLE Epoch: 5/21/2021
Index Date (AQUA) Time (AQUA) Lat,Lon (AQUA) SZA (AQUA ) Date (METOP-B) Time (METOP-B) Lat,Lon (METOP-B) SZA (METOP-B ) Distance(km) Time Diff (sec)
1 05/23/2021 00:22:09 -73.79, -11.25 126.82 05/23/2021 00:21:29 -73.80, -11.15 126.81 3.12 40
2 05/23/2021 01:11:37 73.83, 156.29 53.22 05/23/2021 01:12:08 73.83, 156.26 53.22 1.13 31
3 05/25/2021 19:56:24 -73.81, 55.15 127.32 05/25/2021 19:55:53 -73.80, 55.27 127.32 3.59 31
4 05/25/2021 20:45:52 73.86,-137.32 52.74 05/25/2021 20:46:32 73.83,-137.33 52.71 3.08 40
5 05/28/2021 15:30:37 -73.78, 121.65 127.81 05/28/2021 15:30:16 -73.81, 121.68 127.78 3.38 21
6 05/28/2021 16:20:05 73.83, -70.83 52.25 05/28/2021 16:20:55 73.83, -70.93 52.24 3.20 50
7 05/31/2021 10:15:17 73.35, 21.37 51.33 05/31/2021 10:14:08 73.30, 19.59 51.35 57.22 69
8 05/31/2021 11:04:52 -73.81,-171.97 128.19 05/31/2021 11:04:40 -73.81,-171.90 128.19 2.24 12
9 05/31/2021 11:54:20 73.87, -4.47 51.87 05/31/2021 11:55:18 73.88, -4.41 51.87 1.96 58
10 06/03/2021 05:49:38 73.70, 87.05 51.35 06/03/2021 05:48:25 73.64, 86.79 51.30 10.85 73
11 06/03/2021 06:39:06 -73.80,-105.50 128.57 06/03/2021 06:39:04 -73.81,-105.49 128.55 1.89 2



Historial Predications of SNOs between AQUA and METOP-B
